#�ϑ�����,���ϕ���,���ϕ���,�ő啗��,�ő啗����������,�ő�u�ԕ���,�ő�u�ԕ�����������
#(�N����),(m/s)   ,(16����),(m/s)   ,(16����)        ,(m/s)       ,(16����)            
2018/3/20 0:01,1.1,10,1.1,9,2.4,11
2018/3/20 0:02,1.2,10,1.2,9,2.5,10
2018/3/20 0:03,1.3,10,1.3,9,2.9,9
2018/3/20 0:04,1.5,10,1.5,9,4.8,10
2018/3/20 0:05,1.9,10,1.9,10,5,9
2018/3/20 0:06,2.2,10,2.2,10,5.6,9
2018/3/20 0:07,2.4,10,2.4,10,5.6,9
2018/3/20 0:08,2.6,10,2.6,10,5.4,9
2018/3/20 0:09,2.6,10,2.6,10,3.7,10
2018/3/20 0:10,2.7,10,2.7,10,4.4,9
2018/3/20 0:11,2.8,10,2.8,10,4.4,9
2018/3/20 0:12,2.8,10,2.8,10,4.3,10
2018/3/20 0:13,2.8,9,2.9,10,5,9
2018/3/20 0:14,2.7,9,2.8,10,3.8,9
2018/3/20 0:15,2.4,9,2.7,10,2.6,12
2018/3/20 0:16,2.3,10,2.4,10,3.9,11
2018/3/20 0:17,2.3,10,2.3,10,4.1,11
2018/3/20 0:18,2.2,10,2.3,10,3.7,10
2018/3/20 0:19,2.3,10,2.3,10,4.7,9
2018/3/20 0:20,2.2,10,2.3,10,4.1,8
2018/3/20 0:21,2.1,10,2.2,10,3,9
2018/3/20 0:22,2,10,2.1,10,2.5,10
2018/3/20 0:23,2,10,2,9,2.6,9
2018/3/20 0:24,1.8,10,2,9,1.9,9
2018/3/20 0:25,1.9,10,1.9,9,2.5,10
2018/3/20 0:26,1.7,10,1.8,10,2.6,10
2018/3/20 0:27,1.6,10,1.7,10,3.9,10
2018/3/20 0:28,1.6,10,1.6,10,4.2,9
2018/3/20 0:29,1.6,10,1.6,10,3.6,12
2018/3/20 0:30,1.7,11,1.7,10,2.9,13
2018/3/20 0:31,1.9,11,1.9,10,3.1,13
2018/3/20 0:32,2,11,2,10,3.5,11
2018/3/20 0:33,2.1,12,2.1,11,4.2,11
2018/3/20 0:34,2.4,12,2.4,12,5.6,13
2018/3/20 0:35,2.6,12,2.6,12,5.1,14
2018/3/20 0:36,2.6,12,2.6,12,3.6,1
2018/3/20 0:37,2.8,13,2.8,12,8.1,15
2018/3/20 0:38,2.7,13,2.8,12,3.8,1
2018/3/20 0:39,2.7,13,2.7,12,2.9,4
2018/3/20 0:40,2.8,13,2.8,12,5.8,9
2018/3/20 0:41,2.7,13,2.8,12,3.7,12
2018/3/20 0:42,2.7,13,2.8,12,7.1,8
2018/3/20 0:43,2.6,13,2.7,12,5.5,8
2018/3/20 0:44,2.5,12,2.6,12,3.7,9
2018/3/20 0:45,2.3,11,2.5,12,4.7,9
2018/3/20 0:46,2.3,12,2.3,12,3.1,11
2018/3/20 0:47,2.2,11,2.3,13,4.9,2
2018/3/20 0:48,2.2,10,2.3,13,6.1,3
2018/3/20 0:49,2.1,10,2.2,13,2.6,8
2018/3/20 0:50,2,9,2.1,13,3.6,7
2018/3/20 0:51,2,8,2,13,3,8
2018/3/20 0:52,1.9,8,2.1,13,5.5,8
2018/3/20 0:53,2,9,2,13,4.9,12
2018/3/20 0:54,2,9,2,11,4.9,10
2018/3/20 0:55,2.2,8,2.2,12,6.9,5
2018/3/20 0:56,2.2,8,2.2,12,3.6,11
2018/3/20 0:57,2.2,9,2.3,10,5.2,9
2018/3/20 0:58,2.2,10,2.2,8,3.3,11
2018/3/20 0:59,2.2,10,2.2,8,4.9,9
2018/3/20 1:00,2.1,10,2.2,8,2,10
2018/3/20 1:01,2.1,10,2.2,8,6,9
2018/3/20 1:02,2.3,11,2.3,8,5.8,16
2018/3/20 1:03,2.4,11,2.4,11,5.6,13
2018/3/20 1:04,2.5,12,2.5,12,8.2,14
2018/3/20 1:05,2.4,12,2.5,12,3.2,11
2018/3/20 1:06,2.3,12,2.4,12,2.4,12
2018/3/20 1:07,2.2,12,2.3,12,4.4,15
2018/3/20 1:08,2.2,12,2.2,12,3.2,9
2018/3/20 1:09,2.3,12,2.3,12,4.1,10
2018/3/20 1:10,2.4,12,2.4,12,3.5,7
2018/3/20 1:11,2.4,12,2.4,12,5,10
2018/3/20 1:12,2.4,11,2.5,12,4.7,9
2018/3/20 1:13,2.3,11,2.4,12,5.7,2
2018/3/20 1:14,2.2,11,2.3,12,6.9,15
2018/3/20 1:15,2.4,12,2.4,12,9,2
2018/3/20 1:16,2.5,13,2.5,12,6.7,14
2018/3/20 1:17,2.6,12,2.6,13,6.4,13
2018/3/20 1:18,2.9,13,2.9,13,9.8,16
2018/3/20 1:19,3.4,15,3.4,15,12.3,2
2018/3/20 1:20,3.5,15,3.5,15,7.4,16
2018/3/20 1:21,4.1,16,4.1,16,14,2
2018/3/20 1:22,4.5,16,4.5,16,11.1,2
2018/3/20 1:23,4.8,16,4.8,16,11,16
2018/3/20 1:24,5,1,5,16,13.8,1
2018/3/20 1:25,5.3,1,5.3,1,12.2,1
2018/3/20 1:26,5.7,1,5.7,1,12.4,1
2018/3/20 1:27,5.9,1,5.9,1,10.6,1
2018/3/20 1:28,5.9,1,6,1,14.8,16
2018/3/20 1:29,6.1,1,6.1,1,13.1,2
2018/3/20 1:30,6.4,1,6.4,1,15.1,15
2018/3/20 1:31,6.3,1,6.5,1,14.8,16
2018/3/20 1:32,6.3,16,6.4,1,12.5,16
2018/3/20 1:33,6.4,16,6.4,1,15.9,16
2018/3/20 1:34,6.4,16,6.5,1,13.3,1
2018/3/20 1:35,6.6,16,6.6,16,15.1,16
2018/3/20 1:36,6.5,16,6.7,16,10.6,15
2018/3/20 1:37,6.7,16,6.7,16,12.5,16
2018/3/20 1:38,6.7,16,6.7,16,10.5,2
2018/3/20 1:39,6.2,16,6.7,16,8.2,2
2018/3/20 1:40,5.9,16,6.3,16,6.7,15
2018/3/20 1:41,5.8,16,5.9,16,10.5,1
2018/3/20 1:42,5.5,16,5.7,16,11.8,15
2018/3/20 1:43,5.6,16,5.7,16,13.9,2
2018/3/20 1:44,5.5,16,5.6,16,15.1,1
2018/3/20 1:45,5.2,16,5.6,16,11.3,16
2018/3/20 1:46,4.9,1,5.2,16,7.8,1
2018/3/20 1:47,4.9,1,5,16,11,1
2018/3/20 1:48,5,1,5,16,11.3,1
2018/3/20 1:49,5.1,1,5.1,16,10,1
2018/3/20 1:50,5.4,1,5.4,16,11.6,1
2018/3/20 1:51,5.2,1,5.4,16,9,15
2018/3/20 1:52,5.3,1,5.3,16,14.3,16
2018/3/20 1:53,5,1,5.4,16,9.3,16
2018/3/20 1:54,5.2,1,5.3,16,13.5,16
2018/3/20 1:55,5,16,5.1,1,7,15
2018/3/20 1:56,5,16,5,1,9,16
2018/3/20 1:57,4.8,16,5.1,1,7.1,14
2018/3/20 1:58,4.5,16,4.8,1,10.1,13
2018/3/20 1:59,4.2,16,4.4,1,6.2,6
2018/3/20 2:00,4.1,16,4.2,1,10.7,4
2018/3/20 2:01,4.3,16,4.3,1,10.6,2
2018/3/20 2:02,3.9,1,4.2,1,6.1,7
2018/3/20 2:03,3.9,1,3.9,1,6.8,4
2018/3/20 2:04,3.6,2,3.9,1,6.7,3
2018/3/20 2:05,3.5,2,3.6,16,6.4,15
2018/3/20 2:06,3.6,3,3.7,16,5.8,3
2018/3/20 2:07,3.4,3,3.6,16,3.5,7
2018/3/20 2:08,3.5,3,3.5,16,7.9,3
2018/3/20 2:09,3.5,3,3.5,16,8.2,16
2018/3/20 2:10,3.5,3,3.5,16,8.4,4
2018/3/20 2:11,3.2,4,3.4,16,5,7
2018/3/20 2:12,3.1,3,3.2,1,4.7,12
2018/3/20 2:13,3.1,3,3.1,1,7.4,12
2018/3/20 2:14,3,2,3.1,3,6.2,15
2018/3/20 2:15,3.3,1,3.3,3,10.5,14
2018/3/20 2:16,3.4,15,3.4,3,16.7,14
2018/3/20 2:17,3.7,15,3.7,15,12.1,16
2018/3/20 2:18,3.6,15,3.7,15,4.2,15
2018/3/20 2:19,3.9,16,4,15,11.5,2
2018/3/20 2:20,4.1,15,4.1,15,12.2,2
2018/3/20 2:21,4.3,15,4.3,15,10.7,1
2018/3/20 2:22,4.5,16,4.5,16,11.7,1
2018/3/20 2:23,4.8,16,4.8,16,13.5,2
2018/3/20 2:24,5.2,1,5.2,1,12.7,1
2018/3/20 2:25,5.1,1,5.3,1,9.4,2
2018/3/20 2:26,5.1,1,5.2,1,12.2,16
2018/3/20 2:27,5,1,5.1,1,7.9,3
2018/3/20 2:28,5.2,1,5.2,1,9.7,15
2018/3/20 2:29,5.5,1,5.5,1,16.5,16
2018/3/20 2:30,5.6,1,5.8,1,15.1,1
2018/3/20 2:31,5.9,1,5.9,1,11.6,1
2018/3/20 2:32,6,1,6,1,9.9,16
2018/3/20 2:33,5.8,1,6,1,10.3,15
2018/3/20 2:34,5.7,1,5.9,1,12.1,16
2018/3/20 2:35,5.9,1,6,1,13.9,16
2018/3/20 2:36,6,1,6,1,14.2,2
2018/3/20 2:37,6.6,1,6.6,1,20.5,16
2018/3/20 2:38,6.5,1,6.6,1,11.4,16
2018/3/20 2:39,6.2,1,6.6,1,9.5,2
2018/3/20 2:40,6,1,6.2,1,12.2,2
2018/3/20 2:41,5.9,1,6,1,12.4,15
2018/3/20 2:42,5.8,1,5.9,1,11.3,15
2018/3/20 2:43,5.9,1,6,1,9.9,16
2018/3/20 2:44,5.7,1,5.9,1,10.7,1
2018/3/20 2:45,5.6,1,5.7,1,11,2
2018/3/20 2:46,5.3,1,5.5,1,4.9,2
2018/3/20 2:47,4.6,1,5.2,1,9,1
2018/3/20 2:48,4.5,1,4.6,1,6.5,14
2018/3/20 2:49,4.2,1,4.4,1,7,16
2018/3/20 2:50,4,1,4.2,1,3.2,3
2018/3/20 2:51,3.7,2,3.9,1,4.2,2
2018/3/20 2:52,3.3,2,3.6,1,3.7,3
2018/3/20 2:53,2.9,2,3.2,1,6.9,3
2018/3/20 2:54,2.8,2,2.9,1,9.4,3
2018/3/20 2:55,2.6,2,2.7,1,8.7,15
2018/3/20 2:56,2.7,1,2.8,1,6.8,15
2018/3/20 2:57,2.8,1,2.8,1,7.5,16
2018/3/20 2:58,2.8,1,2.8,1,5.7,14
2018/3/20 2:59,2.7,16,2.8,1,4.1,12
2018/3/20 3:00,2.8,16,2.8,1,5.8,13
2018/3/20 3:01,2.9,15,2.9,2,8.5,16
2018/3/20 3:02,3.3,16,3.3,16,8.4,4
2018/3/20 3:03,3.5,16,3.6,16,8.4,5
2018/3/20 3:04,3.5,16,3.6,16,9,2
2018/3/20 3:05,3.5,16,3.5,16,11.5,16
2018/3/20 3:06,3.8,1,3.8,1,13.1,16
2018/3/20 3:07,4.2,1,4.2,1,12.5,1
2018/3/20 3:08,4.3,1,4.3,1,6,16
2018/3/20 3:09,4.6,1,4.6,1,11.4,2
2018/3/20 3:10,4.7,2,4.7,1,7.8,16
2018/3/20 3:11,4.7,2,4.7,1,9.1,3
2018/3/20 3:12,4.5,2,4.8,2,6.5,3
2018/3/20 3:13,4.6,2,4.6,2,8.5,9
2018/3/20 3:14,4.6,2,4.6,2,7.1,1
2018/3/20 3:15,4.5,2,4.6,2,5.1,7
2018/3/20 3:16,4,3,4.5,2,5.5,6
2018/3/20 3:17,3.6,3,4,2,10.9,1
2018/3/20 3:18,4.1,3,4.1,2,16.7,15
2018/3/20 3:19,4,3,4.2,2,8.2,16
2018/3/20 3:20,4,2,4.1,2,9.1,1
2018/3/20 3:21,3.8,2,4,2,6.3,1
2018/3/20 3:22,4,3,4,2,7.1,5
2018/3/20 3:23,4,3,4.1,2,8.2,4
2018/3/20 3:24,3.9,3,4,2,6.5,7
2018/3/20 3:25,3.9,2,4,2,6.2,16
2018/3/20 3:26,4.4,2,4.4,2,11.3,1
2018/3/20 3:27,4.6,2,4.6,2,9.7,16
2018/3/20 3:28,4.4,2,4.5,2,15,1
2018/3/20 3:29,4.4,2,4.5,2,10.7,14
2018/3/20 3:30,4.3,2,4.4,2,7.1,3
2018/3/20 3:31,4.3,1,4.3,2,7,16
2018/3/20 3:32,4.2,1,4.3,2,6.9,15
2018/3/20 3:33,4.3,16,4.3,2,11,3
2018/3/20 3:34,4.2,16,4.3,2,6.4,16
2018/3/20 3:35,4.4,1,4.4,2,9,1
2018/3/20 3:36,4.2,1,4.4,2,13,16
2018/3/20 3:37,4.4,16,4.4,2,14.2,16
2018/3/20 3:38,4.3,16,4.6,16,13.8,16
2018/3/20 3:39,4.1,16,4.3,16,5.5,2
2018/3/20 3:40,4.1,16,4.1,16,7.7,2
2018/3/20 3:41,4.1,16,4.1,16,6.7,2
2018/3/20 3:42,4.1,16,4.2,16,8.2,16
2018/3/20 3:43,3.9,16,4.1,16,9,2
2018/3/20 3:44,4.3,16,4.3,16,14.5,1
2018/3/20 3:45,4.3,16,4.4,16,9.8,2
2018/3/20 3:46,4.1,16,4.3,16,8.5,16
2018/3/20 3:47,3.8,1,4.1,16,13.1,1
2018/3/20 3:48,3.7,1,3.8,16,13.9,1
2018/3/20 3:49,3.7,1,3.7,16,5.8,1
2018/3/20 3:50,3.7,1,3.7,16,7.6,3
2018/3/20 3:51,3.9,1,3.9,16,9.1,2
2018/3/20 3:52,3.8,2,3.9,16,5.7,3
2018/3/20 3:53,3.8,1,3.9,16,10.2,15
2018/3/20 3:54,3.7,1,3.8,16,13,2
2018/3/20 3:55,3.8,1,3.8,16,15.1,16
2018/3/20 3:56,4,1,4,16,10.5,16
2018/3/20 3:57,4.3,1,4.4,1,13.1,1
2018/3/20 3:58,4,1,4.2,1,7.7,3
2018/3/20 3:59,4.4,1,4.4,1,11.4,16
2018/3/20 4:00,4.8,1,4.8,1,15.3,2
2018/3/20 4:01,4.9,16,4.9,16,13.8,1
2018/3/20 4:02,5.2,16,5.2,16,15,16
2018/3/20 4:03,5.3,16,5.3,16,10.5,14
2018/3/20 4:04,5.5,16,5.5,16,18.5,1
2018/3/20 4:05,5.6,16,5.7,16,11,1
2018/3/20 4:06,5.8,16,5.8,16,11.4,16
2018/3/20 4:07,5.9,16,5.9,16,18.5,16
2018/3/20 4:08,6.5,16,6.5,16,17.6,1
2018/3/20 4:09,6.4,16,6.6,16,15.9,16
2018/3/20 4:10,6.1,16,6.4,16,8.2,16
2018/3/20 4:11,6.2,16,6.2,16,12.6,1
2018/3/20 4:12,6.2,16,6.2,16,14.3,1
2018/3/20 4:13,6.7,16,6.7,16,16.6,16
2018/3/20 4:14,6.7,16,6.8,16,12.8,15
2018/3/20 4:15,6.8,16,6.9,16,18.5,16
2018/3/20 4:16,7.1,16,7.2,16,15.4,1
2018/3/20 4:17,6.9,16,7.1,16,15,15
2018/3/20 4:18,6.6,16,6.9,16,12.6,2
2018/3/20 4:19,7.2,16,7.2,16,15.6,16
2018/3/20 4:20,7.6,16,7.6,16,17.9,16
2018/3/20 4:21,7.7,16,7.8,16,14.2,15
2018/3/20 4:22,7.9,16,7.9,16,19,1
2018/3/20 4:23,7.8,16,8.1,16,21.6,16
2018/3/20 4:24,7.6,16,7.8,16,9.5,16
2018/3/20 4:25,7.5,16,7.7,16,12.7,2
2018/3/20 4:26,7.3,16,7.6,16,12.1,1
2018/3/20 4:27,7.9,16,7.9,16,19.8,16
2018/3/20 4:28,7.8,16,7.9,16,14.1,1
2018/3/20 4:29,7.5,16,7.7,16,13.6,16
2018/3/20 4:30,7.1,16,7.4,16,11.4,16
2018/3/20 4:31,7,16,7,16,15.2,1
2018/3/20 4:32,6.9,16,7,16,15.8,16
2018/3/20 4:33,6.6,16,6.8,16,11.5,16
2018/3/20 4:34,7.2,16,7.2,16,18.6,1
2018/3/20 4:35,7.2,16,7.4,16,14.9,1
2018/3/20 4:36,7.3,16,7.3,16,16.7,2
2018/3/20 4:37,7.3,16,7.6,16,17.6,1
2018/3/20 4:38,7.6,16,7.6,16,16.7,1
2018/3/20 4:39,7.5,16,7.6,16,10.7,2
2018/3/20 4:40,7.9,16,7.9,16,22.1,16
2018/3/20 4:41,8.2,16,8.3,1,16.5,16
2018/3/20 4:42,8.2,1,8.4,1,17.6,1
2018/3/20 4:43,8.4,1,8.4,1,12.5,2
2018/3/20 4:44,8.4,1,8.6,1,20.9,1
2018/3/20 4:45,8.8,1,8.8,1,21,16
2018/3/20 4:46,8.9,1,9.1,1,21.4,16
2018/3/20 4:47,8.6,16,9,1,18.8,16
2018/3/20 4:48,8.7,16,8.7,1,17.8,16
2018/3/20 4:49,8.6,16,8.7,1,11.9,1
2018/3/20 4:50,8.6,16,8.7,1,15.3,16
2018/3/20 4:51,8.2,16,8.6,1,17.6,1
2018/3/20 4:52,8.1,16,8.2,1,19.5,1
2018/3/20 4:53,8,16,8.1,1,14.2,1
2018/3/20 4:54,7.6,1,8,1,13.9,1
2018/3/20 4:55,7.4,1,7.7,1,17.6,1
2018/3/20 4:56,7.5,16,7.5,1,16.5,15
2018/3/20 4:57,7.5,1,7.5,16,16.7,3
2018/3/20 4:58,7.2,16,7.5,16,15.6,1
2018/3/20 4:59,7.6,16,7.6,16,16.3,16
2018/3/20 5:00,7.3,16,7.6,16,17.8,16
2018/3/20 5:01,7.5,1,7.5,16,16.1,2
2018/3/20 5:02,7.8,1,7.8,16,18.4,1
2018/3/20 5:03,8.2,1,8.2,1,20.7,16
2018/3/20 5:04,8.3,1,8.3,1,16.1,2
2018/3/20 5:05,8.1,1,8.2,1,15.2,2
2018/3/20 5:06,8,1,8.2,1,22.1,1
2018/3/20 5:07,7.9,1,7.9,1,14.1,2
2018/3/20 5:08,8.5,1,8.5,1,19.7,16
2018/3/20 5:09,8.8,1,8.8,1,23.2,15
2018/3/20 5:10,9.1,1,9.1,1,14,16
2018/3/20 5:11,9,1,9.1,1,12.4,1
2018/3/20 5:12,8.7,16,9,1,16.3,2
2018/3/20 5:13,8.6,1,8.6,1,16.8,1
2018/3/20 5:14,8.4,1,8.7,1,14.1,16
2018/3/20 5:15,8.2,1,8.3,1,18.4,16
2018/3/20 5:16,8.1,1,8.1,1,14.4,1
2018/3/20 5:17,8,1,8.1,1,11.7,16
2018/3/20 5:18,7.4,1,8,1,12.1,16
2018/3/20 5:19,7.1,1,7.4,1,16.1,2
2018/3/20 5:20,6.9,16,7.1,1,14.8,15
2018/3/20 5:21,6.8,1,6.8,1,14,16
2018/3/20 5:22,6.8,1,6.8,1,20.1,2
2018/3/20 5:23,6.8,1,7,1,21.9,16
2018/3/20 5:24,7.3,16,7.3,1,18.6,15
2018/3/20 5:25,7.5,16,7.7,1,20.5,1
2018/3/20 5:26,7.6,16,7.7,1,18.1,1
2018/3/20 5:27,7.9,1,8.1,16,19,16
2018/3/20 5:28,8.2,1,8.2,1,19,1
2018/3/20 5:29,8.1,1,8.2,1,15.7,1
2018/3/20 5:30,8.2,1,8.2,1,16.6,16
2018/3/20 5:31,8.8,1,8.8,1,20.7,16
2018/3/20 5:32,8.9,1,9.1,1,16,1
2018/3/20 5:33,8.8,1,8.8,1,21.2,1
2018/3/20 5:34,8.5,1,8.7,1,16.3,16
2018/3/20 5:35,8.2,1,8.4,1,13.1,1
2018/3/20 5:36,8.2,1,8.2,1,15.9,1
2018/3/20 5:37,7.9,1,8.1,1,18.4,1
2018/3/20 5:38,7.7,1,7.9,1,17,3
2018/3/20 5:39,7.3,1,7.6,1,9.5,2
2018/3/20 5:40,7.4,1,7.5,1,17.2,1
2018/3/20 5:41,7,1,7.5,1,13.2,16
2018/3/20 5:42,7,1,7,1,14.5,1
2018/3/20 5:43,6.9,1,7.3,1,16.7,15
2018/3/20 5:44,6.8,1,7,1,11.8,1
2018/3/20 5:45,7,1,7,1,11.4,2
2018/3/20 5:46,7,1,7.1,1,15.3,16
2018/3/20 5:47,7.1,1,7.1,1,12.6,1
2018/3/20 5:48,7,1,7.1,1,17.1,1
2018/3/20 5:49,7.5,1,7.5,1,17.8,2
2018/3/20 5:50,7.2,1,7.4,1,11.7,14
2018/3/20 5:51,7.5,1,7.5,1,18.3,1
2018/3/20 5:52,7.5,1,7.6,1,14.1,15
2018/3/20 5:53,7.7,1,7.7,1,21.5,16
2018/3/20 5:54,7.7,1,7.8,1,15.2,1
2018/3/20 5:55,8.2,1,8.2,1,18.7,16
2018/3/20 5:56,8.1,1,8.3,1,16.5,2
2018/3/20 5:57,8.3,1,8.3,1,15.6,2
2018/3/20 5:58,8.6,1,8.6,1,14,16
2018/3/20 5:59,8.5,1,8.7,1,15.9,15
2018/3/20 6:00,8.9,1,8.9,1,22.4,1
2018/3/20 6:01,9,1,9.1,1,23.5,2
2018/3/20 6:02,8.8,1,9,1,17.8,1
2018/3/20 6:03,9.1,1,9.2,1,22.8,16
2018/3/20 6:04,9.2,1,9.2,1,17.7,16
2018/3/20 6:05,8.7,1,9.2,1,17.7,16
2018/3/20 6:06,9,1,9,1,18.9,2
2018/3/20 6:07,9.2,16,9.4,1,19.7,16
2018/3/20 6:08,9.2,16,9.3,1,18.1,2
2018/3/20 6:09,9.3,16,9.5,16,19.7,2
2018/3/20 6:10,9.4,16,9.5,16,18.7,3
2018/3/20 6:11,9,16,9.3,16,15.2,1
2018/3/20 6:12,9.4,16,9.5,16,20.2,15
2018/3/20 6:13,9,16,9.3,16,19.7,1
2018/3/20 6:14,9.4,16,9.5,16,20.2,1
2018/3/20 6:15,9.7,1,9.7,1,18.4,16
2018/3/20 6:16,9.7,16,9.7,1,18.1,1
2018/3/20 6:17,9.2,1,9.6,1,14.5,1
2018/3/20 6:18,8.9,1,9.1,1,13.2,16
2018/3/20 6:19,9.1,1,9.1,1,15,2
2018/3/20 6:20,9.3,1,9.3,1,19,1
2018/3/20 6:21,9.6,1,9.6,1,18.8,1
2018/3/20 6:22,9.2,16,9.6,1,14.3,16
2018/3/20 6:23,9.1,16,9.3,1,19.5,1
2018/3/20 6:24,8.7,16,9,1,14.7,1
2018/3/20 6:25,8.6,16,8.8,16,16.5,16
2018/3/20 6:26,8.8,16,8.8,16,19.3,16
2018/3/20 6:27,8.9,16,8.9,1,18,16
2018/3/20 6:28,9.2,16,9.2,1,16.6,16
2018/3/20 6:29,9.3,16,9.4,1,17.8,1
2018/3/20 6:30,9.1,16,9.4,1,14.1,1
2018/3/20 6:31,9.2,16,9.2,1,19.8,1
2018/3/20 6:32,9.5,16,9.5,16,18.9,1
2018/3/20 6:33,9.4,16,9.5,16,15.2,2
2018/3/20 6:34,9.9,16,9.9,16,22.4,16
2018/3/20 6:35,9.9,16,10,16,15.4,1
2018/3/20 6:36,9.6,16,9.8,16,19,16
2018/3/20 6:37,9.8,16,10,16,18.8,16
2018/3/20 6:38,9.8,16,9.9,16,21.2,16
2018/3/20 6:39,9.4,16,9.8,16,12.8,2
2018/3/20 6:40,9.4,16,9.5,16,18.5,16
2018/3/20 6:41,9.2,16,9.4,16,20.9,1
2018/3/20 6:42,9.2,16,9.3,16,20.5,1
2018/3/20 6:43,9,16,9.2,16,12.1,1
2018/3/20 6:44,8.6,16,8.9,16,18.7,1
2018/3/20 6:45,8.8,16,8.8,16,16.5,1
2018/3/20 6:46,8.9,16,9,16,17.8,16
2018/3/20 6:47,8.9,1,8.9,16,18.6,16
2018/3/20 6:48,9.1,1,9.1,16,17.2,3
2018/3/20 6:49,9.6,16,9.6,16,17.7,1
2018/3/20 6:50,9.5,1,9.5,16,16.3,15
2018/3/20 6:51,9.5,1,9.6,16,14.7,1
2018/3/20 6:52,9.6,1,9.6,16,21.3,1
2018/3/20 6:53,9.7,1,9.8,1,13.8,15
2018/3/20 6:54,9.6,1,9.8,1,16.2,1
2018/3/20 6:55,9.9,1,9.9,1,20.1,16
2018/3/20 6:56,9.6,1,9.9,1,18.1,15
2018/3/20 6:57,9.3,1,9.6,1,16.3,15
2018/3/20 6:58,9.1,1,9.3,1,19.6,2
2018/3/20 6:59,8.7,1,9.1,1,19.4,16
2018/3/20 7:00,8.8,1,9,1,19.4,1
2018/3/20 7:01,8.7,16,8.9,1,13.4,1
2018/3/20 7:02,8,16,8.7,1,10.7,2
2018/3/20 7:03,8.1,16,8.2,1,16.7,2
2018/3/20 7:04,8.2,16,8.3,1,16.5,2
2018/3/20 7:05,7.8,16,8.2,1,18.8,2
2018/3/20 7:06,8,16,8,1,19.2,15
2018/3/20 7:07,8.2,1,8.2,1,21,1
2018/3/20 7:08,8.3,1,8.4,1,16,2
2018/3/20 7:09,8.5,1,8.6,1,19.7,16
2018/3/20 7:10,8.1,1,8.5,16,15.7,16
2018/3/20 7:11,8.2,1,8.2,16,16.5,16
2018/3/20 7:12,8.4,1,8.5,16,15,16
2018/3/20 7:13,8.5,1,8.5,16,16.5,1
2018/3/20 7:14,8.3,16,8.5,16,18.6,16
2018/3/20 7:15,8.3,16,8.4,16,14.2,16
2018/3/20 7:16,8.4,16,8.4,16,17.9,1
2018/3/20 7:17,8.5,16,8.6,16,20.5,1
2018/3/20 7:18,8.2,16,8.5,16,17.5,1
2018/3/20 7:19,8.3,16,8.3,16,19.2,16
2018/3/20 7:20,8.7,1,8.7,16,16,3
2018/3/20 7:21,9,1,9,1,21.5,16
2018/3/20 7:22,9.3,16,9.3,16,18.3,16
2018/3/20 7:23,9.3,16,9.5,16,15.9,16
2018/3/20 7:24,9.2,16,9.3,16,16,2
2018/3/20 7:25,9.6,1,9.6,1,22,16
2018/3/20 7:26,9.7,1,9.7,16,22,16
2018/3/20 7:27,9.7,16,9.8,16,18.1,16
2018/3/20 7:28,9.7,16,9.7,16,13.2,16
2018/3/20 7:29,9.4,16,9.6,16,12.5,1
2018/3/20 7:30,9.5,16,9.5,16,16.9,16
2018/3/20 7:31,9.3,16,9.9,16,21.1,16
2018/3/20 7:32,9.5,16,9.5,16,18.4,1
2018/3/20 7:33,9,16,9.4,16,14.2,16
2018/3/20 7:34,9,16,9.1,16,18.1,16
2018/3/20 7:35,9.1,16,9.4,16,23.6,16
2018/3/20 7:36,8.9,16,9,16,17.8,16
2018/3/20 7:37,9,16,9.1,16,21.6,16
2018/3/20 7:38,9.2,16,9.3,16,21.2,1
2018/3/20 7:39,9.3,16,9.3,16,15.1,16
2018/3/20 7:40,9.3,16,9.3,16,22.4,1
2018/3/20 7:41,9,16,9.2,16,17,16
2018/3/20 7:42,8.9,16,9.2,16,18.3,2
2018/3/20 7:43,9.2,16,9.2,16,13.9,1
2018/3/20 7:44,9.3,16,9.4,16,14.9,16
2018/3/20 7:45,9,16,9.2,16,16.2,16
2018/3/20 7:46,9.1,16,9.2,16,16.5,16
2018/3/20 7:47,8.6,16,9.1,16,14.5,1
2018/3/20 7:48,8.7,16,8.8,16,18.1,15
2018/3/20 7:49,8.8,16,8.8,16,21.4,1
2018/3/20 7:50,8.7,16,8.9,16,20.7,1
2018/3/20 7:51,9,16,9,16,23.9,16
2018/3/20 7:52,9.3,1,9.3,16,21,1
2018/3/20 7:53,9.1,1,9.3,16,16.1,1
2018/3/20 7:54,9.2,1,9.2,1,16.3,1
2018/3/20 7:55,9,1,9.2,1,15.2,1
2018/3/20 7:56,8.5,1,9,1,19,1
2018/3/20 7:57,8.6,1,8.6,1,18.7,16
2018/3/20 7:58,8.3,1,8.6,1,15,16
2018/3/20 7:59,7.9,1,8.3,1,10.8,2
2018/3/20 8:00,7.5,1,7.8,1,16.2,1
2018/3/20 8:01,7.1,1,7.6,1,17.9,2
2018/3/20 8:02,6.7,1,7.1,1,13,16
2018/3/20 8:03,6.9,1,6.9,1,20.1,1
2018/3/20 8:04,6.7,1,6.9,1,17.1,2
2018/3/20 8:05,6.8,1,6.9,1,19.6,15
2018/3/20 8:06,7.2,1,7.2,1,21.1,15
2018/3/20 8:07,7.2,1,7.5,1,12.2,1
2018/3/20 8:08,6.8,1,7.2,1,10.1,1
2018/3/20 8:09,6.8,1,6.8,1,9.9,14
2018/3/20 8:10,6.8,1,7,1,13.3,1
2018/3/20 8:11,7,1,7,1,15.3,2
2018/3/20 8:12,7.1,1,7.1,1,14.3,1
2018/3/20 8:13,7.2,1,7.4,1,17.5,1
2018/3/20 8:14,7.3,1,7.5,1,11.6,16
2018/3/20 8:15,7.1,1,7.1,1,16.8,1
2018/3/20 8:16,7.2,1,7.3,1,19.7,16
2018/3/20 8:17,7.2,16,7.3,1,15,1
2018/3/20 8:18,7.5,1,7.5,1,11.8,2
2018/3/20 8:19,7.7,1,7.8,16,16.6,16
2018/3/20 8:20,7.6,1,7.6,16,11.9,15
2018/3/20 8:21,7.4,1,7.6,16,13.6,2
2018/3/20 8:22,7.7,1,7.8,16,15.9,1
2018/3/20 8:23,7.8,1,7.8,16,20.7,15
2018/3/20 8:24,8.1,1,8.1,1,15.9,1
2018/3/20 8:25,8,16,8.2,1,15.2,3
2018/3/20 8:26,7.7,16,8,1,19.5,15
2018/3/20 8:27,7.7,1,7.8,1,17.4,16
2018/3/20 8:28,7.6,1,7.6,1,17.4,16
2018/3/20 8:29,8.3,16,8.3,1,21.3,16
2018/3/20 8:30,8.3,1,8.4,16,12.6,16
2018/3/20 8:31,8.7,16,8.7,16,19,16
2018/3/20 8:32,8.4,16,8.7,16,13.5,16
2018/3/20 8:33,8.2,16,8.3,16,14.7,1
2018/3/20 8:34,8.3,16,8.3,16,20.4,1
2018/3/20 8:35,8.6,16,8.7,16,17.7,15
2018/3/20 8:36,8.5,16,8.6,16,10.7,15
2018/3/20 8:37,8.6,16,8.6,16,16,1
2018/3/20 8:38,8.8,16,8.9,16,15.1,2
2018/3/20 8:39,8.2,16,8.8,16,16,16
2018/3/20 8:40,8.3,16,8.4,16,16.2,1
2018/3/20 8:41,7.6,16,8.3,16,7.8,16
2018/3/20 8:42,7.6,16,7.6,16,11.9,3
2018/3/20 8:43,7.6,16,7.6,16,20.2,16
2018/3/20 8:44,7.4,1,7.6,16,15.2,16
2018/3/20 8:45,7,1,7.3,16,15.3,16
2018/3/20 8:46,7.1,16,7.1,16,14.3,15
2018/3/20 8:47,6.8,16,7.2,16,13.8,2
2018/3/20 8:48,7,16,7.1,16,20.2,16
2018/3/20 8:49,7.1,1,7.1,16,13.9,1
2018/3/20 8:50,6.8,1,7,16,11.1,16
2018/3/20 8:51,7.2,1,7.2,16,16.2,1
2018/3/20 8:52,7,1,7.3,16,11,1
2018/3/20 8:53,6.7,1,6.9,16,12.5,2
2018/3/20 8:54,6.3,1,6.6,1,11.1,15
2018/3/20 8:55,6.5,1,6.6,1,16.6,16
2018/3/20 8:56,6.4,1,6.7,1,14.4,16
2018/3/20 8:57,6.6,1,6.6,1,15.2,2
2018/3/20 8:58,6.5,1,6.7,1,17.1,1
2018/3/20 8:59,6.4,1,6.6,1,13.6,2
2018/3/20 9:00,6.5,1,6.6,1,16.1,2
2018/3/20 9:01,6.5,1,6.7,1,16.3,2
2018/3/20 9:02,7,16,7,16,17.5,16
2018/3/20 9:03,7.3,1,7.4,1,13.5,16
2018/3/20 9:04,7.4,1,7.4,1,10.2,1
2018/3/20 9:05,7.1,16,7.4,1,13.9,16
2018/3/20 9:06,7.3,16,7.3,1,15,15
2018/3/20 9:07,7.2,1,7.4,1,18.9,2
2018/3/20 9:08,7.1,1,7.3,1,13.1,16
2018/3/20 9:09,7.1,1,7.1,1,17.9,1
2018/3/20 9:10,7.3,1,7.4,1,17.2,16
2018/3/20 9:11,7.3,1,7.4,1,16.9,16
2018/3/20 9:12,7.3,1,7.5,1,15.3,2
2018/3/20 9:13,7.3,16,7.4,1,14.4,1
2018/3/20 9:14,7.5,16,7.5,1,16.9,2
2018/3/20 9:15,7.7,16,7.8,16,15.9,14
2018/3/20 9:16,7.5,16,7.7,16,13.5,16
2018/3/20 9:17,7.7,16,7.8,16,15.4,16
2018/3/20 9:18,7.7,16,7.8,16,17,15
2018/3/20 9:19,7.7,16,7.8,16,13.2,15
2018/3/20 9:20,7.7,16,7.7,16,13.9,15
2018/3/20 9:21,7.3,16,7.7,16,11.4,1
2018/3/20 9:22,7.3,16,7.4,16,18.8,1
2018/3/20 9:23,7.6,16,7.6,16,16.2,16
2018/3/20 9:24,7.4,16,7.5,16,18.1,1
2018/3/20 9:25,7.8,16,7.8,16,19.7,16
2018/3/20 9:26,7.7,16,7.8,16,12.7,16
2018/3/20 9:27,7.4,16,7.8,16,14.1,16
2018/3/20 9:28,7.5,16,7.5,16,12.3,1
2018/3/20 9:29,7.3,1,7.5,16,14.1,16
2018/3/20 9:30,7,1,7.2,16,9.1,2
2018/3/20 9:31,6.9,1,6.9,16,7.7,16
2018/3/20 9:32,6.4,1,6.9,16,8.6,15
2018/3/20 9:33,5.8,1,6.4,16,10.8,1
2018/3/20 9:34,5.7,2,5.9,16,10.5,1
2018/3/20 9:35,5,2,5.7,16,10.9,1
2018/3/20 9:36,4.9,2,5.1,16,13.5,1
2018/3/20 9:37,5.3,2,5.3,16,16.3,16
2018/3/20 9:38,5.3,2,5.3,16,15,1
2018/3/20 9:39,5.4,1,5.4,1,14,2
2018/3/20 9:40,5.4,1,5.4,1,9.8,2
2018/3/20 9:41,5.7,1,5.7,1,12.1,16
2018/3/20 9:42,5.8,1,5.8,1,10.5,2
2018/3/20 9:43,5.9,1,5.9,1,13.1,1
2018/3/20 9:44,5.8,1,5.9,1,10.1,16
2018/3/20 9:45,5.8,1,5.8,1,7.2,1
2018/3/20 9:46,5.6,1,5.7,1,9.1,16
2018/3/20 9:47,5.1,1,5.6,1,11.3,16
2018/3/20 9:48,4.9,1,5.1,1,10.5,16
2018/3/20 9:49,5.1,1,5.1,1,17.1,15
2018/3/20 9:50,5.2,1,5.3,1,16,1
2018/3/20 9:51,5,1,5.2,1,11.9,1
2018/3/20 9:52,5.3,1,5.3,1,16.1,2
2018/3/20 9:53,5.3,1,5.4,1,18,15
2018/3/20 9:54,5.7,1,5.7,1,16.8,16
2018/3/20 9:55,5.9,1,6,1,12.2,1
2018/3/20 9:56,6.1,1,6.2,1,12.7,16
2018/3/20 9:57,6.1,1,6.2,1,9.4,15
2018/3/20 9:58,6.6,1,6.6,1,18.9,1
2018/3/20 9:59,6.6,1,6.7,1,16.3,15
2018/3/20 10:00,6.6,1,6.7,1,18,1
2018/3/20 10:01,6.9,1,6.9,1,23.2,15
2018/3/20 10:02,7,1,7.1,1,16.8,15
2018/3/20 10:03,7.2,1,7.3,1,14.7,2
2018/3/20 10:04,6.8,1,7.2,1,10.7,16
2018/3/20 10:05,6.6,1,6.8,1,9.8,16
2018/3/20 10:06,6.5,1,6.6,1,10,3
2018/3/20 10:07,6.5,1,6.7,1,7.7,16
2018/3/20 10:08,6,1,6.5,1,11.5,15
2018/3/20 10:09,5.8,1,6,1,14.9,2
2018/3/20 10:10,5.9,1,6,1,16.6,16
2018/3/20 10:11,5.7,1,6,1,10.2,16
2018/3/20 10:12,5.2,1,5.6,1,11,2
2018/3/20 10:13,5.2,1,5.3,1,12.8,16
2018/3/20 10:14,5.4,1,5.4,1,13.2,16
2018/3/20 10:15,5.6,1,5.6,1,15.3,15
2018/3/20 10:16,5.6,1,5.8,1,12.8,16
2018/3/20 10:17,5.8,1,5.8,1,8.3,16
2018/3/20 10:18,6.1,1,6.2,1,15.1,16
2018/3/20 10:19,6.3,1,6.3,1,15.6,16
2018/3/20 10:20,6.3,1,6.3,1,16,16
2018/3/20 10:21,6.4,1,6.4,1,14.8,16
2018/3/20 10:22,6.9,16,6.9,16,15.1,15
2018/3/20 10:23,7,1,7,1,17,16
2018/3/20 10:24,7.1,1,7.1,1,16.5,16
2018/3/20 10:25,6.9,1,7.1,1,12.5,1
2018/3/20 10:26,7.3,1,7.3,1,14.2,1
2018/3/20 10:27,7.6,1,7.6,1,14.4,1
2018/3/20 10:28,7.6,1,7.6,1,13.2,16
2018/3/20 10:29,7.2,1,7.6,1,11.7,2
2018/3/20 10:30,7.2,1,7.3,1,15.2,16
2018/3/20 10:31,7.3,1,7.3,1,12.2,2
2018/3/20 10:32,7.4,1,7.4,1,14.4,16
2018/3/20 10:33,7.2,1,7.3,1,11.6,15
2018/3/20 10:34,6.7,1,7.1,1,7.7,16
2018/3/20 10:35,6.5,1,6.7,1,8.7,3
2018/3/20 10:36,6.5,1,6.6,1,19.5,2
2018/3/20 10:37,6.5,1,6.6,1,15.6,15
2018/3/20 10:38,6.4,1,6.6,1,14.4,2
2018/3/20 10:39,6.4,1,6.5,1,11.5,16
2018/3/20 10:40,6,1,6.3,1,11.3,16
2018/3/20 10:41,5.9,1,5.9,1,11.1,1
2018/3/20 10:42,5.4,1,5.8,1,12.4,15
2018/3/20 10:43,5.5,1,5.6,1,17.1,16
2018/3/20 10:44,5.7,16,5.7,1,8.2,14
2018/3/20 10:45,5.7,16,5.8,1,10.6,15
2018/3/20 10:46,5.8,16,5.9,1,15.7,15
2018/3/20 10:47,5.6,16,5.9,1,14.8,1
2018/3/20 10:48,5.3,16,5.6,1,7.7,16
2018/3/20 10:49,5.4,16,5.4,1,7.6,3
2018/3/20 10:50,5.3,1,5.4,1,7,4
2018/3/20 10:51,5,1,5.3,16,7.1,15
2018/3/20 10:52,4.8,16,5,16,7.6,13
2018/3/20 10:53,4.4,1,4.7,16,8.6,1
2018/3/20 10:54,4.6,1,4.6,16,11.7,16
2018/3/20 10:55,4.5,1,4.5,16,13.9,1
2018/3/20 10:56,4.6,1,4.7,16,19.9,16
2018/3/20 10:57,4.8,1,4.8,16,13.6,16
2018/3/20 10:58,5.2,1,5.2,16,16.6,16
2018/3/20 10:59,5.6,1,5.6,1,16.3,1
2018/3/20 11:00,5.7,16,5.7,16,12.7,1
2018/3/20 11:01,6.3,1,6.3,1,12.2,1
2018/3/20 11:02,6.5,1,6.5,1,9.2,2
2018/3/20 11:03,6.7,1,6.7,1,10.8,1
2018/3/20 11:04,6.6,1,6.6,1,15,15
2018/3/20 11:05,6.9,1,7,1,11.8,16
2018/3/20 11:06,6.4,1,6.8,1,7.8,1
2018/3/20 11:07,5.9,1,6.4,1,12.5,1
2018/3/20 11:08,5.7,1,5.9,1,10.1,16